User: anonymous   Login
Location: Unspecified
(0.0000°N, 0.0000°E)
Time: 17:24:50
(UTC+00:00)
Language:

BREEZE-M R/B - Orbit

View from above orbital plane
View from above orbital plane
View from above satellite
View from above satellite

Ground track
Ground track

The orbit data is extracted from the following two-line orbital elements,

1 39173U 13026B   20023.00110645 -.00000209  00000-0  00000+0 0  9990
2 39173  24.6243 166.7865 7452752 202.8049  89.0662  1.10513661 26803
Epoch (UTC): 23 January 2020 00:01:35
Eccentricity: 0.7452752
inclination: 24.6243°
perigee height: 3688 km
apogee height: 62590 km
right ascension of ascending node: 166.7865°
argument of perigee: 202.8049°
revolutions per day: 1.10513661
mean anomaly at epoch: 89.0662°
orbit number at epoch: 2680

The dashed part of the orbit path shows where the satellite is in the earth's shadow,  

DLR